Temp
-11 -11 -10 -10 -10 -10 -10 -10 -10 -10 -10 -10 -9 -10 -10 -10 -10 -10 -11 -11 -11 -11 -11 -11 -11 -11 -11 -11 -10 -10 -10 -9 -9 -10 -10 -11 -11 -11 -11 -10 -10 -9 -10 -10 -10
-10 -10 -10 -11 -11 -10 -10 -10 -10 -10 -10 -10 -10 -10 -10 -11 -11 -11 -11 -11 -12 -11 -12 -11 -12 -11 -11 -11 -10 -10 -9 -9 -10 -11 -11 -11 -11 -11 -11 -12 -11 -10 -11 -11 -12
-10 -10 -10 -10 -10 -11 -11 -11 -11 -11 -11 -11 -11 -11 -11 -10 -11 -11 -11 -11 -11 -12 -12 -12 -12 -12 -11 -10 -10 -10 -9 -10 -10 -11 -11 -11 -11 -11 -12 -12 -12 -10 -9 -10 -11
-10 -10 -10 -10 -10 -10 -10 -10 -10 -10 -10 -10 -11 -11 -11 -11 -11 -10 -10 -12 -11 -12 -12 -12 -12 -12 -11 -10 -11 -11 -10 -10 -10 -11 -11 -12 -11 -11 -12 -12 -12 -10 -9 -10 -11
-10 -11 -11 -11 -10 -10 -10 -10 -10 -10 -10 -10 -10 -10 -11 -10 -10 -10 -10 -10 -11 -11 -12 -12 -12 -12 -11 -11 -12 -10 -10 -12 -10 -11 -11 -11 -12 -10 -11 -10 -10 -10 -10 -10 -11
-10 -10 -10 -10 -10 -10 -10 -10 -10 -10 -10 -10 -10 -10 -10 -10 -10 -10 -10 -10 -11 -11 -11 -12 -11 -12 -11 -11 -11 -11 -11 -11 -11 -12 -12 -12 -10 -10 -10 -10 -9 -10 -10 -11 -11
-11 -10 -10 -10 -10 -10 -10 -10 -10 -10 -10 -10 -10 -10 -10 -10 -10 -10 -11 -11 -11 -11 -11 -11 -11 -12 -11 -11 -11 -11 -12 -11 -11 -11 -10 -13 -9 -9 -10 -10 -10 -10 -10 -11 -11
-11 -11 -11 -11 -11 -10 -10 -10 -10 -10 -10 -10 -10 -9 -9 -10 -10 -10 -10 -11 -10 -11 -11 -12 -12 -11 -11 -11 -11 -11 -11 -10 -9 -10 -11 -13 -7 -9 -10 -11 -11 -11 -11 -12 -11
-11 -11 -11 -11 -11 -11 -11 -10 -10 -10 -10 -10 -10 -9 -9 -9 -10 -10 -10 -10 -10 -11 -10 -11 -11 -12 -12 -12 -12 -10 -9 -8 -9 -10 -11 -13 -8 -9 -10 -11 -11 -11 -11 -10 -11
-12 -11 -11 -11 -11 -11 -10 -10 -10 -10 -10 -10 -10 -10 -10 -9 -9 -9 -10 -10 -10 -11 -11 -11 -11 -11 -11 -11 -9 -9 -9 -10 -9 -10 -12 -12 -9 -10 -10 -10 -10 -11 -12 -10 -10
-11 -11 -11 -10 -10 -10 -10 -10 -10 -10 -10 -10 -10 -10 -9 -9 -9 -9 -9 -9 -10 -10 -10 -11 -12 -10 -9 -9 -10 -10 -11 -10 -10 -11 -13 -10 -11 -13 -11 -10 -10 -11 -10 -9 -10
-11 -11 -10 -10 -10 -10 -10 -10 -10 -10 -10 -11 -10 -10 -9 -10 -9 -9 -9 -9 -10 -10 -11 -12 -10 -8 -10 -10 -11 -11 -11 -10 -11 -11 -13 -12 -13 -11 -11 -11 -9 -9 -9 -9 -10
-11 -10 -10 -11 -11 -12 -13 -14 -14 -13 -11 -13 -14 -13 -12 -11 -11 -10 -10 -10 -9 -10 -11 -11 -8 -11 -10 -11 -10 -10 -10 -10 -10 -12 -13 -13 -12 -9 -10 -10 -10 -9 -9 -10 -10
-11 -11 -11 -14 -15 -18 -19 -19 -19 -20 -16 -18 -17 -16 -16 -15 -14 -12 -12 -11 -11 -10 -12 -11 -9 -10 -11 -10 -10 -10 -10 -10 -11 -11 -11 -13 -9 -9 -9 -9 -9 -9 -9 -10 -10
-12 -15 -18 -20 -21 -22 -23 -22 -22 -21 -20 -23 -23 -22 -21 -19 -19 -17 -15 -15 -13 -13 -13 -9 -10 -11 -11 -8 -12 -8 -12 -11 -11 -11 -12 -11 -10 -9 -9 -9 -10 -11 -10 -10 -10
-16 -20 -22 -23 -24 -24 -24 -24 -23 -24 -24 -24 -24 -23 -24 -24 -23 -21 -20 -17 -16 -16 -14 -10 -11 -12 -10 -11 -12 -12 -12 -12 -12 -11 -11 -9 -11 -8 -9 -10 -10 -10 -10 -10 -10
-21 -23 -24 -24 -25 -25 -25 -25 -24 -24 -24 -24 -24 -24 -24 -25 -24 -24 -22 -22 -22 -19 -16 -12 -13 -12 -12 -12 -12 -12 -12 -14 -12 -10 -8 -10 -10 -8 -9 -10 -9 -10 -10 -10 -10
-23 -24 -24 -25 -25 -26 -26 -26 -25 -25 -26 -25 -25 -25 -25 -25 -25 -24 -24 -24 -24 -21 -21 -18 -15 -13 -10 -10 -10 -11 -12 -9 -9 -10 -9 -12 -9 -8 -10 -9 -10 -10 -10 -10 -10
-24 -24 -24 -25 -26 -26 -25 -25 -26 -26 -25 -26 -25 -25 -25 -25 -25 -24 -25 -24 -23 -22 -21 -20 -17 -15 -14 -12 -12 -10 -14 -8 -13 -12 -12 -11 -12 -12 -10 -10 -10 -10 -10 -10 -11
-23 -24 -24 -25 -25 -26 -26 -26 -26 -25 -25 -25 -25 -25 -25 -25 -24 -25 -25 -24 -23 -22 -21 -20 -20 -18 -18 -14 -13 -15 -10 -15 -12 -11 -12 -12 -11 -11 -11 -11 -10 -10 -10 -11 -11
-23 -24 -24 -25 -25 -25 -26 -26 -26 -26 -26 -26 -25 -25 -25 -25 -25 -25 -24 -23 -23 -22 -21 -21 -20 -18 -18 -18 -14 -14 -15 -12 -12 -13 -12 -12 -11 -11 -12 -11 -11 -11 -11 -11 -11
-23 -24 -24 -24 -25 -25 -25 -25 -26 -26 -26 -26 -26 -25 -25 -25 -25 -25 -24 -23 -23 -22 -21 -22 -20 -19 -19 -18 -16 -15 -16 -12 -11 -11 -13 -11 -12 -11 -11 -11 -11 -12 -11 -11 -12
-23 -23 -24 -24 -25 -25 -25 -25 -25 -26 -26 -26 -26 -25 -25 -25 -25 -25 -24 -23 -23 -22 -21 -21 -20 -18 -18 -17 -17 -17 -16 -14 -12 -14 -13 -12 -12 -11 -11 -11 -11 -11 -12 -12 -12
-22 -23 -24 -24 -24 -25 -25 -25 -26 -26 -26 -26 -25 -25 -25 -25 -25 -24 -24 -23 -23 -22 -22 -21 -20 -18 -16 -18 -17 -17 -16 -15 -13 -14 -13 -13 -13 -12 -12 -11 -11 -11 -12 -12 -12
-22 -23 -23 -23 -24 -25 -25 -25 -25 -26 -26 -25 -25 -25 -25 -25 -25 -24 -24 -23 -23 -22 -22 -21 -20 -18 -17 -17 -17 -16 -15 -15 -15 -14 -13 -13 -13 -12 -13 -12 -11 -12 -12 -12 -12
-22 -23 -23 -23 -23 -24 -24 -25 -25 -25 -25 -25 -25 -25 -25 -25 -25 -24 -24 -23 -23 -22 -22 -20 -20 -19 -18 -16 -16 -16 -16 -15 -15 -15 -14 -13 -13 -13 -13 -11 -12 -12 -12 -12 -12
-22 -22 -23 -23 -22 -23 -24 -24 -25 -25 -25 -25 -25 -25 -25 -25 -25 -25 -24 -23 -22 -22 -21 -20 -20 -20 -18 -17 -16 -16 -16 -15 -15 -15 -15 -14 -14 -14 -14 -13 -13 -12 -13 -13 -12
Height
5799 5798 5798 5799 5800 5801 5802 5804 5806 5806 5808 5809 5812 5813 5816 5819 5822 5822 5828 5831 5831 5833 5834 5837 5840 5843 5844 5847 5850 5852 5851 5853 5860 5864 5864 5864 5864 5865 5856 5857 5859 5859 5856 5855 5852
5793 5793 5792 5791 5791 5792 5793 5794 5795 5795 5797 5798 5799 5802 5804 5807 5811 5813 5822 5822 5823 5823 5826 5829 5832 5834 5834 5839 5841 5842 5843 5848 5854 5856 5856 5858 5858 5857 5855 5852 5852 5853 5854 5850 5845
5787 5786 5786 5786 5786 5785 5785 5785 5786 5786 5788 5788 5790 5791 5793 5796 5799 5803 5808 5812 5814 5813 5815 5819 5822 5823 5825 5829 5831 5834 5835 5842 5844 5849 5850 5849 5848 5849 5846 5845 5847 5847 5848 5843 5840
5782 5780 5778 5777 5776 5775 5775 5775 5776 5776 5777 5778 5780 5781 5783 5786 5787 5786 5793 5800 5804 5806 5805 5809 5812 5812 5815 5820 5825 5824 5827 5831 5836 5838 5839 5839 5842 5837 5838 5838 5839 5841 5841 5835 5834
5774 5772 5771 5769 5767 5765 5764 5763 5763 5763 5764 5766 5767 5769 5772 5775 5779 5777 5781 5788 5792 5795 5797 5796 5800 5804 5803 5811 5815 5816 5821 5821 5824 5827 5828 5828 5827 5827 5827 5832 5833 5833 5832 5828 5827
5764 5763 5761 5759 5758 5756 5754 5753 5753 5752 5752 5752 5754 5756 5757 5762 5765 5766 5768 5772 5777 5780 5783 5784 5788 5793 5797 5799 5802 5811 5810 5811 5814 5814 5816 5816 5815 5817 5818 5820 5825 5823 5824 5820 5819
5755 5752 5750 5747 5745 5743 5742 5741 5740 5740 5739 5739 5739 5739 5744 5752 5751 5751 5755 5757 5762 5767 5772 5775 5778 5779 5788 5787 5795 5796 5794 5798 5800 5806 5804 5807 5799 5807 5814 5813 5814 5814 5816 5812 5810
5745 5741 5738 5735 5732 5730 5727 5725 5724 5723 5723 5724 5725 5726 5731 5735 5734 5737 5741 5744 5747 5754 5760 5763 5764 5768 5771 5778 5779 5781 5784 5783 5796 5798 5796 5799 5789 5802 5806 5803 5802 5804 5805 5802 5803
5734 5730 5726 5723 5719 5715 5712 5709 5708 5708 5707 5708 5709 5711 5715 5718 5719 5722 5724 5731 5733 5738 5744 5748 5753 5760 5761 5764 5767 5771 5773 5781 5784 5788 5789 5789 5783 5793 5798 5793 5793 5795 5795 5796 5796
5722 5717 5712 5707 5703 5698 5694 5691 5690 5689 5690 5689 5689 5695 5695 5699 5701 5705 5708 5713 5720 5723 5729 5735 5738 5742 5749 5755 5755 5769 5769 5770 5775 5784 5779 5778 5777 5782 5785 5783 5785 5786 5785 5786 5789
5709 5702 5696 5690 5684 5679 5674 5670 5670 5668 5670 5667 5669 5674 5675 5677 5682 5688 5692 5696 5701 5707 5713 5718 5717 5729 5746 5752 5760 5760 5759 5762 5770 5775 5771 5771 5771 5775 5773 5774 5776 5777 5777 5777 5781
5695 5686 5678 5671 5664 5657 5651 5645 5643 5641 5648 5642 5646 5650 5654 5651 5663 5670 5671 5679 5684 5690 5695 5694 5705 5733 5736 5744 5742 5748 5750 5756 5762 5765 5766 5764 5761 5763 5765 5762 5766 5768 5772 5768 5768
5679 5670 5660 5650 5642 5632 5624 5619 5615 5611 5618 5624 5618 5625 5628 5632 5640 5648 5649 5657 5665 5670 5673 5678 5711 5716 5723 5726 5730 5737 5742 5751 5755 5755 5754 5754 5749 5756 5757 5755 5755 5759 5758 5753 5759
5663 5651 5638 5626 5618 5610 5604 5600 5595 5592 5593 5595 5591 5600 5604 5607 5616 5624 5627 5637 5643 5651 5655 5664 5697 5697 5703 5710 5723 5728 5737 5742 5744 5744 5745 5751 5741 5747 5748 5750 5749 5746 5747 5750 5753
5647 5631 5619 5610 5604 5597 5590 5584 5582 5581 5586 5582 5580 5580 5585 5593 5594 5600 5606 5614 5621 5630 5633 5668 5670 5677 5682 5705 5710 5723 5729 5732 5734 5735 5739 5741 5736 5741 5744 5743 5741 5739 5740 5743 5747
5628 5616 5606 5600 5596 5588 5581 5574 5572 5575 5576 5581 5579 5579 5579 5583 5584 5587 5589 5593 5602 5608 5616 5645 5651 5658 5677 5688 5697 5713 5718 5722 5725 5729 5727 5736 5730 5733 5741 5734 5736 5734 5734 5738 5741
5617 5609 5601 5595 5588 5581 5576 5573 5573 5573 5574 5573 5571 5570 5571 5573 5578 5580 5581 5584 5589 5594 5601 5624 5626 5640 5657 5670 5686 5696 5705 5710 5716 5718 5720 5728 5725 5730 5735 5729 5728 5728 5730 5731 5733
5614 5607 5600 5592 5584 5576 5574 5573 5572 5572 5569 5566 5562 5563 5564 5568 5571 5576 5574 5575 5582 5587 5588 5598 5607 5625 5649 5658 5673 5681 5691 5700 5706 5713 5718 5720 5719 5727 5727 5725 5723 5725 5727 5728 5732
5613 5607 5599 5590 5579 5574 5572 5571 5570 5568 5565 5560 5558 5557 5558 5564 5565 5567 5568 5569 5570 5573 5579 5586 5595 5617 5626 5641 5652 5668 5673 5702 5707 5716 5718 5723 5719 5720 5722 5722 5723 5724 5726 5727 5730
5613 5606 5598 5589 5581 5575 5573 5571 5570 5566 5562 5559 5556 5557 5555 5556 5558 5560 5561 5558 5561 5566 5570 5580 5585 5598 5616 5629 5638 5655 5682 5684 5694 5703 5712 5718 5722 5721 5720 5722 5721 5723 5724 5726 5728
5613 5606 5597 5590 5583 5577 5572 5569 5565 5562 5558 5555 5553 5552 5551 5551 5551 5552 5555 5553 5554 5558 5562 5571 5575 5588 5605 5609 5628 5644 5657 5671 5691 5698 5707 5714 5718 5715 5717 5719 5720 5722 5722 5724 5727
5613 5604 5598 5592 5586 5580 5574 5568 5563 5559 5556 5552 5550 5549 5548 5547 5547 5548 5549 5548 5550 5552 5557 5562 5568 5581 5597 5612 5622 5638 5652 5665 5674 5688 5700 5710 5714 5710 5712 5716 5718 5721 5721 5723 5725
5614 5608 5601 5593 5586 5579 5572 5566 5561 5556 5552 5550 5547 5547 5545 5544 5545 5544 5545 5544 5544 5547 5550 5555 5564 5577 5587 5601 5613 5627 5643 5659 5672 5687 5693 5705 5709 5706 5709 5714 5717 5717 5719 5721 5724
5614 5605 5596 5590 5584 5577 5571 5564 5558 5553 5550 5547 5545 5543 5543 5542 5542 5544 5543 5542 5541 5543 5547 5550 5558 5570 5582 5603 5616 5623 5637 5652 5664 5674 5688 5698 5701 5702 5706 5709 5712 5714 5718 5720 5722
5615 5607 5600 5592 5583 5576 5569 5562 5556 5551 5547 5544 5544 5542 5541 5540 5540 5539 5540 5541 5540 5542 5546 5549 5557 5568 5570 5586 5598 5623 5635 5647 5655 5671 5684 5692 5698 5701 5702 5702 5708 5712 5715 5718 5719
5617 5608 5600 5592 5584 5577 5569 5562 5557 5551 5547 5544 5541 5540 5538 5536 5536 5535 5535 5538 5539 5542 5544 5550 5558 5561 5571 5584 5591 5612 5626 5641 5654 5663 5677 5688 5691 5697 5698 5701 5707 5710 5713 5716 5717
5619 5609 5600 5592 5584 5576 5568 5562 5556 5550 5545 5541 5539 5537 5535 5533 5530 5530 5532 5535 5539 5542 5543 5549 5556 5560 5569 5574 5592 5607 5619 5635 5648 5658 5670 5679 5685 5691 5692 5695 5703 5702 5710 5714 5715
Wind_Speed
25 29 33 37 39 39 40 40 42 43 48 51 53 52 66 64 63 60 57 49 48 49 52 53 48 48 50 49 46 46 48 49 43 37 36 31 29 31 41 47 44 43 43 42 42
25 25 26 29 32 36 40 42 42 43 45 47 48 50 55 67 71 68 58 57 56 55 52 53 51 53 56 54 54 53 55 49 44 37 36 34 33 30 35 40 45 45 42 46 42
28 30 31 32 33 35 36 38 38 39 42 44 47 48 50 55 61 69 68 67 64 64 64 59 55 58 62 59 58 57 55 48 49 41 39 44 48 41 42 45 44 51 43 47 46
28 30 31 33 35 36 39 40 42 43 45 45 46 47 47 49 54 59 63 72 64 65 68 62 63 67 66 60 55 58 59 58 53 50 47 48 48 51 44 48 53 51 41 47 45
32 34 35 37 39 40 41 42 42 44 45 47 48 48 49 49 47 52 54 61 68 72 72 71 69 71 71 68 66 65 62 58 58 55 58 57 57 61 60 57 55 53 46 49 50
33 34 36 37 39 42 44 46 48 49 50 50 50 48 49 49 50 51 50 51 56 64 67 66 78 72 70 73 71 62 65 69 65 61 58 60 63 64 61 63 54 56 50 53 48
36 38 39 41 43 44 45 46 49 52 54 54 55 55 53 49 51 54 55 55 54 56 58 62 62 76 75 73 71 67 67 72 71 69 68 50 63 59 61 59 49 50 56 56 55
39 41 43 44 45 46 48 49 50 51 52 54 57 59 56 56 58 56 55 57 59 57 58 59 60 61 67 66 65 65 62 65 54 53 57 47 60 49 49 49 49 49 45 48 49
43 46 48 49 52 54 56 56 57 57 58 58 59 59 57 58 62 62 64 60 60 61 62 63 63 61 64 63 63 60 57 53 53 53 53 47 55 49 40 47 46 48 50 46 42
43 45 48 51 54 55 58 60 62 63 62 63 62 61 62 63 62 65 66 67 65 64 62 63 65 65 66 65 61 53 55 59 52 51 49 49 47 42 42 48 48 47 48 47 41
48 51 54 56 57 59 62 65 65 66 64 67 68 66 66 65 65 66 66 69 69 70 67 66 69 63 52 54 52 57 60 58 50 47 41 47 46 44 49 44 43 41 46 49 43
54 56 58 61 65 68 71 74 75 73 70 69 70 70 71 69 70 66 67 68 69 71 72 75 70 46 55 51 57 55 55 50 48 48 37 45 48 45 46 46 43 43 42 48 43
58 63 66 70 74 75 73 70 72 73 78 67 68 68 70 71 70 68 70 69 69 71 74 76 55 59 57 58 57 53 52 47 44 43 38 43 50 42 43 43 43 36 39 46 38
64 68 72 71 68 54 52 50 52 52 66 59 64 60 61 62 64 69 69 70 70 72 68 73 63 66 63 61 55 51 46 46 47 48 45 35 46 41 42 38 38 41 40 35 28
68 69 60 48 41 39 42 45 44 44 42 28 30 34 33 41 46 53 61 63 67 69 68 65 67 71 71 57 56 47 41 44 46 47 40 42 47 40 38 37 33 30 31 29 27
66 51 40 35 29 32 40 35 29 18 14 12 15 13 16 15 18 35 46 56 57 60 67 67 64 67 67 66 61 50 46 47 46 43 46 40 49 38 29 34 23 25 26 23 25
48 37 31 30 33 35 17 12 9 8 8 14 22 23 18 20 20 22 35 35 33 45 61 66 68 69 66 70 65 60 54 46 46 48 43 39 44 34 26 30 27 25 20 25 29
35 31 32 35 32 24 10 11 10 6 13 16 27 29 32 21 19 22 27 27 20 28 34 54 65 68 65 68 69 67 62 59 54 46 40 39 42 28 23 23 15 11 17 19 20
35 31 29 40 30 17 10 6 8 13 19 13 8 8 2 14 19 23 24 24 32 33 39 40 56 59 69 70 72 69 63 48 39 25 29 23 24 25 20 15 12 13 14 16 16
32 32 34 35 34 21 11 8 13 20 21 13 5 11 9 15 14 16 16 30 29 33 29 32 43 52 53 70 69 57 53 48 50 46 31 22 20 12 17 18 15 14 15 17 16
32 32 33 38 36 30 15 15 17 18 15 11 8 7 10 13 9 15 21 23 28 34 33 39 42 48 55 56 69 68 52 58 45 38 32 24 20 25 23 28 18 11 15 14 15
33 34 33 35 36 32 21 15 13 13 17 13 9 6 7 10 11 7 10 18 24 25 36 34 48 36 45 39 62 62 51 55 57 47 32 24 21 24 22 25 20 16 15 12 12
32 32 32 34 35 34 32 21 18 18 15 11 8 8 7 7 12 11 15 15 12 18 31 37 49 44 50 46 48 46 51 50 50 36 33 24 22 20 28 23 21 22 14 13 14
34 34 38 37 35 34 33 29 22 16 15 10 7 6 6 5 6 8 13 14 16 22 17 35 50 54 27 44 38 46 49 46 51 42 33 31 18 25 25 27 23 21 18 17 15
34 34 34 34 34 32 31 29 28 19 18 13 7 8 8 9 9 9 8 10 9 17 11 29 41 59 25 50 49 47 47 46 50 39 33 31 23 24 21 30 27 25 21 18 17
35 34 35 35 32 30 30 28 27 21 14 10 9 9 11 10 10 15 13 12 7 8 15 19 40 51 38 48 51 48 45 43 45 44 33 23 29 22 23 26 29 28 24 21 18
34 35 33 33 36 36 30 29 27 25 15 12 10 9 9 12 12 13 17 14 12 5 13 22 38 52 32 40 44 41 48 44 41 43 34 27 32 38 20 35 34 38 29 23 19
Wind_Direction
263 265 263 257 255 256 256 253 251 247 247 247 245 244 235 237 237 238 238 240 242 242 245 250 248 244 251 253 252 247 244 248 248 249 248 248 264 262 264 263 269 274 277 281 283
267 264 263 263 262 259 255 254 254 253 250 249 247 245 241 240 244 244 236 238 241 243 243 240 236 240 244 248 248 248 251 248 252 252 254 259 260 263 263 273 271 270 277 277 281
270 270 267 263 260 258 257 256 254 252 252 253 252 251 249 246 244 241 240 240 241 245 247 242 240 242 244 247 250 251 254 254 252 251 258 264 259 265 264 264 268 274 276 272 280
266 267 268 267 266 264 262 259 257 255 254 253 251 250 248 249 248 244 242 239 238 244 247 246 244 245 248 252 250 251 256 257 259 253 258 262 263 256 266 265 266 271 274 272 274
269 268 266 265 265 264 263 263 264 262 260 257 254 251 247 245 247 251 248 243 242 243 244 250 251 251 248 258 260 258 260 259 265 262 264 264 263 265 264 269 274 268 267 272 273
273 272 271 270 268 266 264 263 261 259 259 259 257 255 253 251 246 247 247 246 240 242 244 248 248 253 254 257 258 263 263 263 263 266 267 263 268 265 265 273 269 263 264 271 273
281 280 278 276 274 271 268 265 264 261 259 258 257 257 256 256 251 247 246 247 244 242 243 247 249 248 253 258 263 264 263 261 262 267 270 270 267 266 269 273 270 262 264 269 266
287 285 283 281 278 276 273 271 269 265 262 260 257 255 254 254 252 252 247 245 246 242 240 240 243 245 248 253 255 258 259 259 261 267 270 266 269 269 271 268 263 267 271 264 265
286 284 281 279 278 276 275 273 270 268 266 263 261 258 256 253 251 249 249 245 244 242 240 241 240 241 244 249 251 255 260 265 264 265 271 262 274 272 268 262 265 269 270 269 262
293 289 286 282 280 277 275 271 269 267 265 263 261 260 256 255 252 249 247 246 244 242 240 240 242 241 241 244 252 261 264 262 267 272 271 277 280 279 271 268 265 264 267 265 264
298 294 291 288 284 280 278 276 272 269 266 262 260 257 258 254 252 249 247 246 244 242 242 240 239 241 245 250 256 255 257 262 268 276 270 276 268 267 276 274 270 267 268 268 268
301 297 294 290 287 284 281 280 276 273 268 268 263 260 254 254 250 248 246 245 243 243 240 239 240 247 243 244 245 248 254 258 264 266 257 268 271 274 277 277 271 270 270 272 269
304 302 298 295 293 290 289 287 284 280 272 269 268 264 258 256 252 249 246 243 243 242 239 239 245 241 241 241 243 244 248 256 264 263 260 264 268 275 276 276 276 273 264 262 267
310 307 303 303 298 296 290 288 286 285 278 282 276 268 264 262 257 250 248 245 241 240 238 238 235 236 234 236 241 243 249 250 252 257 263 268 273 267 273 279 281 272 267 271 260
315 312 311 307 303 303 301 299 295 292 290 275 278 273 272 263 253 252 247 241 241 238 237 237 235 232 232 237 235 238 239 246 249 252 256 262 269 271 276 285 287 280 267 261 253
321 323 321 318 317 319 320 316 309 296 287 254 276 258 261 259 270 243 242 242 235 233 234 231 230 228 233 229 229 229 230 237 244 250 252 263 265 271 283 286 288 276 263 255 236
332 335 333 334 330 330 335 3 1 359 281 254 256 251 247 226 237 270 235 235 235 235 229 230 222 222 222 225 227 225 224 228 236 243 260 258 265 279 280 283 281 259 249 234 225
349 354 350 343 333 331 323 331 1 326 304 280 253 250 249 247 243 246 255 245 230 208 225 228 221 220 221 222 228 223 223 230 236 241 256 263 268 270 284 293 274 241 224 225 211
2 1 356 354 354 354 318 340 341 354 340 334 338 330 323 257 260 243 253 243 226 229 223 226 223 216 213 216 216 221 220 231 222 244 247 258 273 283 280 261 214 218 225 227 220
9 2 4 7 6 352 328 346 339 330 329 327 352 315 270 223 268 250 248 250 229 212 214 215 220 212 209 214 213 204 222 210 218 222 237 239 239 240 273 206 206 217 219 215 214
4 1 7 9 12 12 356 330 331 328 331 324 307 294 271 276 266 244 251 249 222 210 206 211 208 204 204 212 210 203 204 212 217 219 226 233 249 261 231 219 216 210 216 212 219
3 360 358 1 6 9 4 348 331 334 332 328 317 301 277 256 264 242 265 248 231 210 212 212 210 196 207 204 208 209 206 207 208 210 212 225 234 245 230 215 207 202 212 208 208
3 358 355 355 360 1 0 352 348 343 336 332 316 293 284 277 254 251 231 254 283 214 211 210 199 184 190 192 213 196 204 209 205 203 214 203 216 234 213 213 213 224 210 211 219
6 359 355 356 356 355 358 0 351 340 335 325 313 289 301 285 281 286 233 261 261 231 216 209 195 178 190 196 200 190 199 202 204 201 204 190 221 208 213 212 208 210 205 211 226
4 4 1 357 357 355 354 2 2 349 324 318 297 290 287 285 238 231 248 257 275 256 231 211 198 187 189 179 181 193 192 197 203 196 200 198 196 194 200 210 203 208 205 213 231
356 358 357 357 353 356 356 358 5 358 355 335 294 303 297 279 255 220 227 194 173 225 222 212 190 196 210 180 171 194 191 195 196 200 187 196 188 174 205 216 205 213 212 214 225
359 358 356 356 3 5 358 357 358 356 348 341 330 319 313 299 283 222 202 195 179 176 222 195 186 200 196 160 173 185 187 195 194 200 185 188 181 188 196 202 205 213 207 215 227